Location: Roy
(47.3334°N, 108.9587°W)
Time: 17:14:28
(UTC+00:00)

X-37B - Pass Details

Date: 30 January 2022
Orbit: 329 x 342 km, 45.0° (Epoch: 18 May)

Event Time Altitude Azimuth Distance (km) Brightness Sun altitude
Rises 01:51:13 0° 243° (WSW) 2,114 5.7 -16.6°
Reaches altitude 10° 01:53:19 10° 234° (SW) 1,275 4.1 -17.0°
Maximum altitude 01:55:58 36° 165° (SSE) 557 1.3 -17.4°
Enters shadow 01:56:01 36° 162° (SSE) 558 1.2 -17.4°
